Location: Omaha
(41.2590°N, 95.9380°W)
Time: 12:41:45
(UTC-06:00)

OTV 5 (USA 277) - Pass Details

Date: 12 October 2017
Orbit: 404 x 417 km, 43.0° (Epoch: 07 September)

Event Time Altitude Azimuth Distance (km) Brightness Sun altitude
Rises 20:11:01 0° 256° (WSW) 2,350 ? -16.6°
Reaches altitude 10° 20:13:07 10° 257° (WSW) 1,488 ? -17.0°
Maximum altitude 20:16:29 86° 345° (NNW) 421 ? -17.6°
Enters shadow 20:17:10 54° 71° (ENE) 510 ? -17.7°
